This is the latest recevied weather packets stored in our database for station/object HS6PNA-2. If no packets are shown the sender has not sent any weather packets the latest 10 day(s).
| Time | Temp. | Humidity | Pressure | Rain* | Wind** | Luminosity | Snow |
|---|---|---|---|---|---|---|---|
| 1777476649 | 29.44° C | 43% | 1004 hPa | - | - | 0 W/m² | - |
| 1777475725 | 30° C | 43% | 1004 hPa | - | - | 0 W/m² | - |
| 1777474800 | 29.44° C | 44% | 1003 hPa | - | - | 0 W/m² | - |
| 1777473876 | 29.44° C | 43% | 1003 hPa | - | - | 0 W/m² | - |
| 1777472951 | 30° C | 43% | 1003 hPa | - | - | 0 W/m² | - |
| 1777472026 | 30° C | 43% | 1002 hPa | - | - | 0 W/m² | - |
| 1777471102 | 30.56° C | 42% | 1002 hPa | - | - | 0 W/m² | - |
| 1777470159 | 30.56° C | 39% | 1002 hPa | - | - | 0 W/m² | - |
| 1777469195 | 30.56° C | 41% | 1002 hPa | - | - | 0 W/m² | - |
| 1777468270 | 31.11° C | 38% | 1002 hPa | - | - | 0 W/m² | - |
| 1777467346 | 31.67° C | 37% | 1001 hPa | - | - | 0 W/m² | - |
| 1777466421 | 31.67° C | 38% | 1001 hPa | - | - | 0 W/m² | - |
| 1777465497 | 32.22° C | 45% | 1001 hPa | - | - | 0 W/m² | - |
| 1777464572 | 32.78° C | 44% | 1001 hPa | - | - | 0 W/m² | - |
| 1777463648 | 33.33° C | 43% | 1001 hPa | - | - | 0 W/m² | - |
| 1777462723 | 32.78° C | 43% | 1001 hPa | - | - | 0 W/m² | - |
| 1777461799 | 32.22° C | 43% | 1001 hPa | - | - | 0 W/m² | - |
| 1777460874 | 32.22° C | 41% | 1001 hPa | - | - | 0 W/m² | - |
| 1777459950 | 30.56° C | 38% | 1001 hPa | - | - | 0 W/m² | - |
| 1777459577 | 30° C | 35% | 1001 hPa | - | - | 0 W/m² | - |
| 1777458653 | 30° C | 33% | 1001 hPa | - | - | 0 W/m² | - |
| 1777457730 | 30° C | 33% | 1001 hPa | - | - | 0 W/m² | - |
| 1777456803 | 30° C | 33% | 1001 hPa | - | - | 0 W/m² | - |
| 1777455878 | 29.44° C | 27% | 1000 hPa | - | - | 0 W/m² | - |
| 1777454954 | 30° C | 27% | 1000 hPa | - | - | 0 W/m² | - |
* Rain since midnight (hover to see other rain measurements)
** Current wind speed in m/s (hover to see current wind gust speed)